This is the latest recevied weather packets stored in our database for station/object W0VI. If no packets are shown the sender has not sent any weather packets the latest 10 day(s).
| Time | Temp. | Humidity | Pressure | Rain* | Wind** | Luminosity | Snow |
|---|---|---|---|---|---|---|---|
| 1777538040 | 1.11° C | 77% | 1018.3 hPa | 0 mm | - | 0 W/m² | - |
| 1777537736 | 1.11° C | 77% | 1018.4 hPa | 0 mm | - | 0 W/m² | - |
| 1777537432 | 1.11° C | 77% | 1018.4 hPa | 0 mm | - | 0 W/m² | - |
| 1777537129 | 1.11° C | 77% | 1018.4 hPa | 0 mm | - | 0 W/m² | - |
| 1777536824 | 1.11° C | 77% | 1018.3 hPa | 0 mm | - | 0 W/m² | - |
| 1777536523 | 0.56° C | 77% | 1018.2 hPa | 0 mm | - | 0 W/m² | - |
| 1777536219 | 1.11° C | 76% | 1018.4 hPa | 0 mm | - | 0 W/m² | - |
| 1777535914 | 1.11° C | 76% | 1018.4 hPa | 0 mm | - | 0 W/m² | - |
| 1777535611 | 1.11° C | 76% | 1018.1 hPa | 0 mm | - | 0 W/m² | - |
| 1777535308 | 1.11° C | 75% | 1018.3 hPa | 0 mm | - | 0 W/m² | - |
| 1777535005 | 1.67° C | 75% | 1018.4 hPa | 0 mm | - | 0 W/m² | - |
| 1777534702 | 1.67° C | 74% | 1018.6 hPa | 0 mm | - | 0 W/m² | - |
| 1777534398 | 1.67° C | 74% | 1018.3 hPa | 0 mm | - | 0 W/m² | - |
| 1777534097 | 1.67° C | 74% | 1018.5 hPa | 0 mm | - | 0 W/m² | - |
| 1777533793 | 1.67° C | 74% | 1018.5 hPa | 0 mm | - | 0 W/m² | - |
| 1777533490 | 1.67° C | 74% | 1018.4 hPa | 0 mm | - | 0 W/m² | - |
| 1777533185 | 1.67° C | 73% | 1018.4 hPa | 0 mm | - | 0 W/m² | - |
| 1777532883 | 1.67° C | 73% | 1018.3 hPa | 0 mm | - | 0 W/m² | - |
| 1777532580 | 2.22° C | 72% | 1018.4 hPa | 0 mm | - | 0 W/m² | - |
| 1777532276 | 2.22° C | 71% | 1018.5 hPa | 0 mm | - | 0 W/m² | - |
| 1777531972 | 2.78° C | 71% | 1018.4 hPa | 0 mm | - | 0 W/m² | - |
| 1777531669 | 2.78° C | 71% | 1018.4 hPa | 0 mm | - | 0 W/m² | - |
| 1777531366 | 2.78° C | 71% | 1018.5 hPa | 0 mm | - | 0 W/m² | - |
| 1777531064 | 2.78° C | 72% | 1018.4 hPa | 0 mm | - | 0 W/m² | - |
| 1777530761 | 2.78° C | 72% | 1018.5 hPa | 0 mm | - | 0 W/m² | - |
* Rain latest hour (hover to see other rain measurements)
** Current wind speed in m/s (hover to see current wind gust speed)